Regional Weather Roundup
Issued by NWS

Home | Current Version | Previous Version | Graphics & Text | Print | Product List | Glossary On
Versions: 1 2 3 4 5 6 7 8 9 10 11 12 13 14 15 16 17 18 19 20 21 22 23 24 25 26 27 28 29 30 31 32 33 34 35 36 37 38 39 40 41 42 43 44 45 46 47 48 49 50
000
ASUS43 KMPX 210310
RWRMN
WEATHER ROUNDUP FOR MINNESOTA
NATIONAL WEATHER SERVICE TWIN CITIES/CHANHASSEN MN
1000 PM CDT WED AUG 20 2014


NOTE: "FAIR" INDICATES FEW OR NO CLOUDS BELOW 12,000 FEET WITH NO
SIGNIFICANT WEATHER AND/OR OBSTRUCTIONS TO VISIBILITY. N/A MEANS
CURRENT SKY AND/OR WEATHER CONDITIONS ARE NOT AVAILABLE.

MNZ060>063-068>070-210400-
   Twin Cities Metro

CITY           SKY/WX    TMP DP  RH WIND       PRES   REMARKS
TWIN CITIES    CLOUDY    75  66  73 E12       29.87R
ST PAUL        MOCLDY    73  66  78 SE8       29.88R
CRYSTAL        MOCLDY    75  66  73 E6        29.86R
BLAINE         MOCLDY    73  66  78 E8        29.88R
LAKEVILLE      MOCLDY    70  66  88 E6        29.87R
EDEN PRAIRIE   MOCLDY    76  67  73 E6        29.86R
SOUTH ST PAUL  MOCLDY    74  65  72 E3        29.88R
LAKE ELMO      FAIR      72  64  78 E6        29.90R
$$
MNZ001>005-007-008-013>017-022>024-027-028-210400-
   Northwest Minnesota

CITY           SKY/WX    TMP DP  RH WIND       PRES   REMARKS
BEMIDJI        PTCLDY    68  63  85 SE7       29.86F
HALLOCK        PTCLDY    73  64  73 SE12      29.78R
ROSEAU         PTCLDY    70  63  78 SE7       29.84R
WARROAD        PTCLDY    70  64  83 SE9       29.85S
THIEF RVR FALL PTCLDY    70  64  83 E8        29.82S
CROOKSTON      PTCLDY    72  66  83 SE7       29.80S
FOSSTON        MOCLDY    66  61  82 SE8       29.84S
DETROIT LAKES  PTCLDY    72  64  78 SE12      29.85S
MOORHEAD       MOCLDY    73  72  94 SE8       29.80S
PARK RAPIDS    MOCLDY    69  64  84 SE9       29.87S
MAHNOMEN       FAIR      68  65  88 SE8       29.82F
$$
MNZ006-009>011-018-025>026-210400-
   North Central Minnesota

CITY           SKY/WX    TMP DP  RH WIND       PRES   REMARKS
BAUDETTE       CLEAR     65  61  87 SE7       29.86F
FLAG ISLAND    PTCLDY    72  63  73 SE6       29.85S
INTL FALLS     PTCLDY    60  57  89 SE3       29.90R
WASKISH        CLEAR     64  61  88 CALM      29.88S
BIG FORK       CLEAR     59  57  94 CALM      29.92R
LONGVILLE      MOCLDY    64  63  94 SE3       29.89F
GRAND RAPIDS   PTCLDY    64  59  82 SE7       29.92S
CRANE LAKE     PTCLDY    55  55 100 CALM      29.93S
ORR            PTCLDY    63  57  82 CALM      29.90S
COOK           PTCLDY    63  61  94 CALM      29.93S
WALKER         FAIR      68  63  84 SE6       29.88S
$$
MNZ012-019>021-037-210400-
   Northeast Minnesota

CITY           SKY/WX    TMP DP  RH WIND       PRES   REMARKS
DULUTH         CLEAR     61  57  87 E7        29.94R
ELY            CLOUDY    64  59  82 SE5       29.95S
HIBBING        CLEAR     59  57  93 S3        29.93R
EVELETH        CLEAR     59  59 100 CALM      29.95R
DULUTH HARBOR  CLEAR     64  61  88 NE12      29.94R
TWO HARBORS    PTCLDY    57  54  88 NE5       29.94R
SILVER BAY     CLOUDY    59  59 100 CALM      29.94S
GRAND MARAIS     N/A     62  59  90 NE5       29.96S
G MARAIS ARPRT CLOUDY    57  55  94 CALM      30.00S FOG
$$
MNZ029>031-032-039>041-046>048-054>057-064-210400-
   West Central Minnesota

CITY           SKY/WX    TMP DP  RH WIND       PRES   REMARKS
FERGUS FALLS   MOCLDY    73  64  73 SE8       29.81S
WHEATON        CLOUDY    72  66  83 E12       29.80S
MORRIS         MOCLDY    73  66  78 E10       29.80S
ALEXANDRIA     PTCLDY    72  65  78 E10       29.86S
ELBOW LAKE     FAIR      73  67  81 E10       29.81F
WADENA         MOCLDY    70  64  83 E8        29.87R
GLENWOOD       CLEAR     72  64  78 E9        29.86S
APPLETON       CLOUDY    75  68  78 E10       29.79F
BENSON         MOCLDY    73  66  78 SE8       29.82S
ORTONVILLE     CLOUDY    75  68  78 SE9       29.78S
MADISON        CLOUDY    77  70  78 SE7       29.79S
WILLMAR        FAIR      75  66  73 E8        29.85R
$$
MNZ033>034-036-042>043-049>051-058-059-210400-
   Central Minnesota

CITY           SKY/WX    TMP DP  RH WIND       PRES   REMARKS
ST CLOUD       MOCLDY    73  65  75 E7        29.87R
SAUK CENTRE    FAIR      71  66  84 E9        29.87R
PAYNESVILLE    PTCLDY    71  65  82 NE8       29.86R
AITKIN         MOCLDY    66  61  82 E5        29.90S
PINE RIVER     MOCLDY    66  64  94 SE7       29.93R
BRAINERD       MOCLDY    68  63  84 VRB3      29.90R
STAPLES        PTCLDY    68  63  83 SE5       29.88S
LONG PRAIRIE   FAIR      70  64  83 E8        29.88R
LITTLE FALLS   MOCLDY    68  63  83 E7        29.88S
LITCHFIELD     PTCLDY    73  70  88 E6        29.87R
BUFFALO        PTCLDY    73  65  76 E5        29.87S
MAPLE LAKE     PTCLDY    73  68  84 E9        29.87S
$$
MNZ037-044-045-052-053-210400-
   East Central Minnesota

CITY           SKY/WX    TMP DP  RH WIND       PRES   REMARKS
PRINCETON      PTCLDY    72  64  78 E7        29.89R
MORA           MOCLDY    64  61  88 E3        29.92S
CAMBRIDGE      MOCLDY    72  61  68 E5        29.88S
RUSH CITY      MOCLDY    67  63  86 E5        29.91R
MOOSE LAKE     MOCLDY    63  61  94 CALM      29.92R
HINCKLEY       CLOUDY    64  63  94 E5        29.92R
CLOQUET        CLEAR     61  57  88 E3        29.94R
MCGREGOR       MOCLDY    63  61  94 E6        29.92S
$$
MNZ071>073-080-081-089-090-097-098-210400-
   Southwest Minnesota

CITY           SKY/WX    TMP DP  RH WIND       PRES   REMARKS
MONTEVIDEO     CLOUDY    73  70  88 S9        29.81S
GRANITE FALLS  CLOUDY    74  70  86 E6        29.82F
CANBY          CLOUDY    73  69  88 SE6       29.80R
MARSHALL       CLOUDY    75  68  78 SE12      29.79S
REDWOOD FALLS  CLOUDY    75  69  81 SE9       29.82R
OLIVIA         CLOUDY    73  68  83 SE7       29.84R
PIPESTONE      CLOUDY    72  68  88 SE8       29.80F
WINDOM         CLOUDY    72  68  88 E6        29.84S
WORTHINGTON    CLOUDY    70  12  11 E6        29.84S
JACKSON        CLOUDY    70  66  88 E6        29.85S
TRACY          CLOUDY    73  70  88 SE7       29.82S
SLAYTON        CLOUDY    70  69  95 CALM      29.83S
$$
MNZ065>067-074>077-082>085-091>093-210400-
   South Central Minnesota

CITY           SKY/WX    TMP DP  RH WIND       PRES   REMARKS
MANKATO        MOCLDY    73  66  78 SE9       29.85R
NEW ULM        CLOUDY    73  72  94 SE6       29.85R
ST JAMES       CLOUDY    73  68  83 E5        29.85S
FAIRMONT       CLOUDY    72  64  78 SE9       29.85S
GLENCOE        MOCLDY    75  68  77 SE5       29.86R
FARIBAULT      PTCLDY    75  66  73 E6        29.87S
OWATONNA       PTCLDY    73  68  83 S5        29.88R
WASECA         MOCLDY    72  63  73 SE6       29.88S
ALBERT LEA     MOCLDY    72  66  83 SE6       29.87R
$$
MNZ078>079-086>088-094>096-210400-
   Southeast Minnesota

CITY           SKY/WX    TMP DP  RH WIND       PRES   REMARKS
ROCHESTER      PTCLDY    70  67  90 S6        29.90S
RED WING       PTCLDY    73  64  73 E5        29.88R
STANTON        MOCLDY    74  67  76 E5        29.86R
DODGE CENTER   PTCLDY    70  68  94 SE6       29.89S
WINONA         CLEAR     73  68  83 CALM      29.90R
AUSTIN         PTCLDY    70  66  88 E6        29.87F
PRESTON        PTCLDY    70  70  99 SE5       29.91F
$$
ABBREVIATIONS USED IN REMARKS
   TC - TEMPERATURES IN CELSIUS
  WCI - WIND CHILL INDEX
   HX - HEAT INDEX
  VSB - VISIBILITY
$$



USA.gov is the U.S. government's official web portal to all federal, state and local government web resources and services.